TimeEDT,TemperatureF,Dew PointF,Humidity,Sea Level PressureIn,VisibilityMPH,Wind Direction,Wind SpeedMPH,Gust SpeedMPH,PrecipitationIn,Events,Conditions,WindDirDegrees,DateUTC
12:53 AM,82.9,73.0,72,30.02,10.0,ESE,4.6,-,N/A,,Clear,120,2013-08-23 04:53:00
1:53 AM,82.0,73.0,74,30.00,10.0,East,5.8,-,N/A,,Clear,100,2013-08-23 05:53:00
2:53 AM,82.0,73.9,76,29.97,10.0,ESE,5.8,-,N/A,,Partly Cloudy,110,2013-08-23 06:53:00
3:53 AM,82.0,75.0,79,29.96,10.0,SE,3.5,-,N/A,,Scattered Clouds,130,2013-08-23 07:53:00
4:53 AM,82.0,73.0,74,29.96,10.0,ESE,5.8,-,N/A,,Partly Cloudy,120,2013-08-23 08:53:00
5:53 AM,81.0,73.9,79,29.96,10.0,Calm,Calm,-,N/A,,Partly Cloudy,0,2013-08-23 09:53:00
6:53 AM,81.0,75.0,82,29.96,10.0,ESE,5.8,-,N/A,,Clear,110,2013-08-23 10:53:00
7:53 AM,84.0,75.0,74,29.98,10.0,East,5.8,-,N/A,,Scattered Clouds,100,2013-08-23 11:53:00
8:00 AM,84.2,75.2,74,29.97,10.0,East,6.9,-,N/A,,Mostly Cloudy,100,2013-08-23 12:00:00
8:17 AM,84.2,75.2,74,29.98,10.0,East,10.4,-,N/A,,Scattered Clouds,100,2013-08-23 12:17:00
8:53 AM,86.0,75.0,70,29.99,10.0,East,9.2,-,N/A,,Scattered Clouds,80,2013-08-23 12:53:00
9:53 AM,88.0,73.9,63,30.00,10.0,East,10.4,-,N/A,,Scattered Clouds,100,2013-08-23 13:53:00
10:53 AM,87.1,73.9,65,30.01,10.0,ESE,10.4,-,N/A,,Scattered Clouds,110,2013-08-23 14:53:00
11:53 AM,90.0,71.1,54,30.01,10.0,East,10.4,-,N/A,,Scattered Clouds,90,2013-08-23 15:53:00
12:53 PM,90.0,73.0,57,30.01,10.0,East,12.7,19.6,N/A,,Scattered Clouds,100,2013-08-23 16:53:00
1:53 PM,89.1,73.9,61,30.00,10.0,East,15.0,-,N/A,,Scattered Clouds,100,2013-08-23 17:53:00
2:53 PM,88.0,73.9,63,29.99,10.0,ESE,10.4,-,N/A,,Scattered Clouds,110,2013-08-23 18:53:00
3:53 PM,84.0,72.0,67,29.99,10.0,ENE,12.7,-,N/A,,Scattered Clouds,70,2013-08-23 19:53:00
4:53 PM,84.9,73.9,69,29.98,10.0,East,12.7,-,N/A,,Scattered Clouds,90,2013-08-23 20:53:00
5:53 PM,84.9,73.0,67,29.98,10.0,SE,8.1,-,N/A,,Mostly Cloudy,130,2013-08-23 21:53:00
6:53 PM,84.0,73.9,72,29.99,10.0,ESE,8.1,-,N/A,,Mostly Cloudy,110,2013-08-23 22:53:00
7:53 PM,82.9,73.9,74,29.99,10.0,ESE,5.8,-,N/A,,Mostly Cloudy,110,2013-08-23 23:53:00
8:53 PM,82.9,75.0,77,30.01,10.0,East,5.8,-,N/A,,Partly Cloudy,90,2013-08-24 00:53:00
9:53 PM,82.9,75.0,77,30.03,10.0,East,8.1,-,N/A,,Scattered Clouds,100,2013-08-24 01:53:00
10:53 PM,82.0,75.0,79,30.02,10.0,East,4.6,-,0.00,Rain,Light Rain,80,2013-08-24 02:53:00
11:53 PM,82.9,73.9,74,30.03,10.0,ESE,8.1,-,0.00,,Clear,120,2013-08-24 03:53:00